{"data":{"norad_id":69976,"intl_designator":"2026-159B","name":"STARLINK-37993","alt_names":[],"object_type":"PAYLOAD","status":"ACTIVE","operator":null,"country":"US","launch_date":"2026-07-11","launch_site_code":"AFWTR","launch_vehicle":null,"mission":null,"orbit_class":"UNKNOWN","rcs_meters":null,"size_class":null,"mass_kg":null,"dimensions":null,"purposes":["comms"],"wikipedia_slug":null,"has_3d_model":false,"image_url":null,"decayed_at":null,"tle_current":{"epoch":"2026-09-19T00:00:02.000160Z","epoch_age_seconds":147382,"freshness":"FRESH","line1":"1 69976U 26159B   26262.00002315  .00097315  00000+0  17712-2 0  9993","line2":"2 69976  97.2856 103.7622 0001437 105.0752 204.0263 15.49152874  6012","mean_motion":15.49152874,"eccentricity":0.0001437,"inclination_deg":97.2856,"raan_deg":103.7622,"arg_perigee_deg":105.0752,"mean_anomaly_deg":204.0263,"bstar":0.0017712,"rev_number":601,"period_min":92.954028241373,"perigee_km":418.22616373863,"apogee_km":420.17971923782,"semimajor_km":6797.3399414882,"source":"CELESTRAK","updated_at":"2026-09-20T09:00:44.305274Z"}}}